Weather Roundup
Issued by NWS Chicago, IL

Home | Current Version | Previous Version | Graphics & Text | Print | Product List | Glossary On
Versions: 1 2 3 4 5 6 7 8 9 10 11 12 13 14 15 16 17 18 19 20 21 22 23 24 25 26 27 28 29 30 31 32 33 34 35 36 37 38 39 40 41 42 43 44 45 46 47 48 49 50
000
NZUS59 KLOT 032203
HRRLOT

CHICAGO AREA WEATHER ROUNDUP
NATIONAL WEATHER SERVICE CHICAGO/ROMEOVILLE IL
400 PM CST SAT DEC 03 2016

NOTE: "FAIR" INDICATES FEW OR NO CLOUDS BELOW 12,000 FEET WITH NO
SIGNIFICANT WEATHER AND/OR OBSTRUCTIONS TO VISIBILITY.

* THESE STATIONS ARE NOT UNDER NWS QUALITY CONTROL. THEY ALSO MAY NOT
  REPORT WEATHER SUCH AS PRECIPITATION OR FOG.

ILZ005-006-012>014-019>023-032300-
NORTHEAST ILLINOIS

CITY           SKY/WX    TMP DP  RH WIND       PRES   REMARKS
OHARE          MOCLDY    33  23  66 W6        30.32F WCI  28
MIDWAY         MOCLDY    34  23  64 W7        30.33F WCI  28
AURORA         CLOUDY    35  26  69 CALM      30.33S
LANSING*       CLOUDY    33  27  77 W6        30.33F WCI  28
JOLIET*        PTCLDY    33  26  75 CALM      30.34F
WAUKEGAN       CLOUDY    32  23  69 W3        30.31F
DUPAGE AIRPORT MOCLDY    33  23  66 CALM      30.31F
WHEELING       PTCLDY    33  22  63 W3        30.33F
KANKAKEE*      CLOUDY    33  26  76 NW3       30.34F
MORRIS*        MOCLDY    33  26  72 CALM      30.33F
LEWIS AIRPORT* CLOUDY    33  28  83 W3        30.33F
NORTHERLY ISL    N/A     34  23  64 W5          N/A  WCI  30
$$

WIZ051-052-058>065-066-070>072-032300-
SOUTHEAST WISCONSIN

CITY           SKY/WX    TMP DP  RH WIND       PRES   REMARKS
MILWAUKEE      CLOUDY    33  21  61 W7        30.32R WCI  27
KENOSHA*       CLOUDY    31  23  72 CALM      30.32S
RACINE*        CLOUDY    32  22  66 W3        30.33S
BURLINGTON     CLOUDY    31  24  72 CALM      30.31S
WAUKESHA       CLOUDY    28  21  74 W5        30.32R WCI  23
WEST BEND      CLOUDY    32  23  69 W7        30.30S WCI  26
$$

INZ001>003-010>013-019-020-032300-
NORTHWEST INDIANA

CITY           SKY/WX    TMP DP  RH WIND       PRES   REMARKS
GARY*          NOT AVBL
MICHIGAN CITY* NOT AVBL
RENSSELAER*    NOT AVBL
VALPARAISO     CLOUDY    35  24  64 SW3       30.32F
$$

LMZ740>746-032300-
SOUTHERN LAKE MICHIGAN

STATION/POSITION TIME  SKY/WX   TEMP WIND        PRES    VSBY
                                AIR  DIR/SP/G
                 (UTC)          (F)  (DEG/KT/KT) (MB)    (MI)
HARRISON CRIB    2140            35  280/ 10/ 11   N/A
BURNHAM HARBOR   2200            34  300/  3/  9   N/A
CALUMET HARBOR   2130            34  220/  5/  8 1026.6F
BURNS HARBOR     2140            35  240/  8/ 11 1027.4S
MICHIGAN CITY    2140            35  240/  9/ 11   N/A
$$

ABBREVIATIONS USED IN REMARKS
   TC - TEMPERATURE IN CELSIUS
  WCI - WIND CHILL INDEX
   HX - HEAT INDEX
  VSB - VISIBILITY
$$



USA.gov is the U.S. government's official web portal to all federal, state and local government web resources and services.